カタログに戻る

FENGYUN 1C DEB

運用中PO
NORAD 30015·DEBRIS·🇨🇳 China

打ち上げ May 10, 1999 から Taiyuan Satellite Launch Center

Loading…

次のパス (今後24時間)

TLE

最新Source: Space-Track

元期: Sep 14, 2026, 13:08 UTC

1 30015U 99025MQ  26257.54741120  .00000838  00000-0  33074-3 0  9999
2 30015  99.2210 282.4071 0038295  50.3525 102.4065 14.31572067 21125

AllMySatでFENGYUN 1C DEBをリアルタイム追跡

Download on the App Store